Tracking 30145 objects as of 19-Jan-2025
HD Live streaming from Space Station
objects crossing your sky now

CZ-2C R/B

Track CZ-2C R/B now!
10-day predictions


NORAD ID: 43610
Int'l Code: 2018-068B
Perigee: 650.8 km
Apogee: 776.0 km
Inclination: 98.7 °
Period: 98.9 minutes
Semi major axis: 7084 km
RCS: Unknown
Launch date: September 6, 2008
Source: People's Republic of China (PRC)
Launch site: Taiyaun Space Center, China (TSC)

Note: This is a ROCKET BODY
Your satellite tracking list
Your tracking list is empty




NASA's NSSDC Master Catalog

Two Line Element Set (TLE):
1 43610U 18068B   25018.92042463  .00001059  00000-0  24017-3 0  9995
2 43610  98.7206 195.4553 0088337 120.3544 240.6424 14.55965707338047
Source of the keplerian elements: AFSPC